Flag for Canada Weather past 2 weeks in Shawinigan, Quebec, Canada

Now
17 °F

Cold.


Feels Like: 9 °F
Forecast: N/A
Wind: 6 mph from Northeast

Location: Shawinigan CS

Current Time: Jan 29, 2015 at 4:30:47 PM

Latest Report: Jan 29, 2015 at 4:00 PM


Visibility: N/A

Pressure: 30.03 "Hg

Humidity: 46%

Dew point: 0 °F

Location of ShawiniganLocation

Historic Weather in Shawinigan — Graph

°F

Shawinigan temperature yesterday

Maximum temperature yesterday: 23 °F (at 4:00 PM)
Minimum temperature yesterday: 3 °F (at 5:00 AM)
Average temperature yesterday: 9 °F

Past Weeks' High & Low Weather Summary

 TemperatureHumidityPressure
High34 °F (Jan 19, 11:00 AM)100% (Jan 19, 12:00 AM)30.41 "Hg (Jan 19, 12:00 AM)
Low-14 °F (Jan 17, 7:00 AM)22% (Jan 28, 12:00 PM)29.21 "Hg (Jan 25, 12:00 AM)
Average8 °F66%29.97 "Hg
* Reported Jan 14 3:00 PM — Jan 29 3:00 PM, Shawinigan, Weather by CustomWeather, © 2014

Note: Actual official high and low records may vary slightly from our data, if they occured in-between our weather recording intervals... More about our weather records

Advertising

Shawinigan weather history for previous 24 hours

 ConditionsComfort  
Time TempWeatherWind HumidityBarometerVisibility
3:00 PM
Jan 29
17 °FCold.5 mph49%30.07 "HgN/A
2:00 PM17 °FCold.2 mph42%30.11 "HgN/A
1:00 PM15 °FCold.3 mph51%30.14 "HgN/A
12:00 PM13 °FCold.1 mph55%30.20 "HgN/A
11:00 AM8 °FFrigid.1 mph81%30.24 "HgN/A
10:00 AM2 °FFrigid.3 mph80%30.27 "HgN/A
9:00 AM-2 °FFrigid.1 mph78%30.28 "HgN/A
8:00 AM-6 °FFrigid.1 mph76%30.29 "HgN/A
7:00 AM-7 °FFrigid.2 mph76%30.30 "HgN/A
6:00 AM-7 °FFrigid.1 mph76%30.29 "HgN/A
5:00 AM-7 °FFrigid.No wind76%30.29 "HgN/A
4:00 AM-5 °FFrigid.No wind77%30.29 "HgN/A
3:00 AM-5 °FFrigid.No wind77%30.28 "HgN/A
2:00 AM-4 °FFrigid.No wind76%30.27 "HgN/A
1:00 AM-2 °FFrigid.1 mph81%30.27 "HgN/A
12:00 AM0 °FFrigid.2 mph74%30.27 "HgN/A
11:00 PM
Jan 28
4 °FFrigid.3 mph73%30.25 "HgN/A
10:00 PM4 °FFrigid.2 mph66%30.24 "HgN/A
9:00 PM6 °FFrigid.2 mph62%30.23 "HgN/A
8:00 PM7 °FFrigid.2 mph58%30.23 "HgN/A
7:00 PM9 °FFrigid.1 mph57%30.21 "HgN/A
6:00 PM13 °FCold.1 mph48%30.19 "HgN/A
5:00 PM19 °FCold.1 mph33%30.18 "HgN/A
4:00 PM23 °FCold.5 mph26%30.14 "HgN/A
Weather by CustomWeather, © 2014

See weather overviewHow to use our weather pages